| time (UTC) | temp F | wind direction | speed knots | gust knots | rain 1hr in | rain 24hr in | rain mn in | humidity % | barometer mb |
| 20260505051532 | 62 | 144 | 2.6 | 13.0 | 0.00 | 0.00 | 0.00 | 47 | 1007.8 |
| 20260505041528 | 63 | 158 | 0.9 | 1.7 | 0.00 | 0.00 | 0.00 | 46 | 1007.5 |
| 20260505040028 | 64 | 165 | 0.0 | 2.6 | 0.00 | 0.00 | 0.00 | 45 | 1007.2 |
| 20260505034527 | 65 | 182 | 0.9 | 2.6 | 0.00 | 0.00 | 0.00 | 43 | 1007.0 |
| 20260505033035 | 65 | 169 | 1.7 | 3.5 | 0.00 | 0.00 | 0.00 | 40 | 1006.7 |
| 20260505031526 | 64 | 136 | 0.9 | 2.6 | 0.00 | 0.00 | 0.00 | 40 | 1006.5 |
| 20260505030026 | 65 | 181 | 0.0 | 0.9 | 0.00 | 0.00 | 0.00 | 43 | 1006.3 |
| 20260505024548 | 67 | 182 | 0.0 | 1.7 | 0.00 | 0.00 | 0.00 | 37 | 1006.1 |
| 20260505023035 | 68 | 199 | 0.0 | 2.6 | 0.00 | 0.00 | 0.00 | 34 | 1006.1 |
| 20260505021542 | 69 | 203 | 0.9 | 4.3 | 0.00 | 0.00 | 0.00 | 33 | 1006.0 |
| 20260505020024 | 70 | 196 | 0.0 | 2.6 | 0.00 | 0.00 | 0.00 | 32 | 1006.0 |
| 20260505014526 | 70 | 205 | 0.9 | 4.3 | 0.00 | 0.00 | 0.00 | 30 | 1005.8 |
| 20260505013023 | 71 | 175 | 0.9 | 3.5 | 0.00 | 0.00 | 0.00 | 30 | 1005.9 |
| 20260505011527 | 71 | 182 | 2.6 | 5.2 | 0.00 | 0.00 | 0.00 | 29 | 1006.0 |
| 20260505010020 | 72 | 198 | 2.6 | 6.1 | 0.00 | 0.00 | 0.00 | 29 | 1006.1 |
| 20260505004531 | 72 | 194 | 2.6 | 7.8 | 0.00 | 0.00 | 0.00 | 29 | 1006.1 |
| 20260505003017 | 72 | 156 | 2.6 | 7.0 | 0.00 | 0.00 | 0.00 | 29 | 1006.3 |
| 20260505001517 | 72 | 163 | 2.6 | 6.1 | 0.00 | 0.00 | 0.00 | 29 | 1006.4 |
| 20260505000016 | 72 | 161 | 2.6 | 6.1 | 0.00 | 0.00 | 0.00 | 30 | 1006.4 |
| 20260504234518 | 72 | 161 | 2.6 | 7.0 | 0.00 | 0.00 | 0.00 | 30 | 1006.5 |
| 20260504233015 | 73 | 144 | 2.6 | 9.6 | 0.00 | 0.00 | 0.00 | 30 | 1006.5 |
| 20260504231514 | 74 | 228 | 1.7 | 5.2 | 0.00 | 0.00 | 0.00 | 27 | 1006.5 |
| 20260504230013 | 73 | 229 | 3.5 | 7.0 | 0.00 | 0.00 | 0.00 | 27 | 1006.5 |
| 20260504224513 | 73 | 213 | 3.5 | 9.6 | 0.00 | 0.00 | 0.00 | 30 | 1006.4 |
| 20260504223012 | 73 | 252 | 3.5 | 8.7 | 0.00 | 0.00 | 0.00 | 30 | 1006.4 |
| 20260504221510 | 74 | 281 | 2.6 | 6.1 | 0.00 | 0.00 | 0.00 | 26 | 1006.4 |
| 20260504220009 | 74 | 217 | 1.7 | 5.2 | 0.00 | 0.00 | 0.00 | 25 | 1006.3 |
| 20260504214507 | 75 | 222 | 2.6 | 7.8 | 0.00 | 0.00 | 0.00 | 25 | 1006.5 |
| 20260504213006 | 74 | 254 | 1.7 | 4.3 | 0.00 | 0.00 | 0.00 | 25 | 1006.8 |
| 20260504211503 | 75 | 263 | 1.7 | 6.1 | 0.00 | 0.00 | 0.00 | 26 | 1006.9 |
| 20260504210002 | 74 | 313 | 0.9 | 10.4 | 0.00 | 0.00 | 0.00 | 27 | 1007.1 |
| 20260504204502 | 73 | 238 | 2.6 | 11.3 | 0.00 | 0.00 | 0.00 | 29 | 1007.2 |
| 20260504203100 | 74 | 198 | 1.7 | 6.1 | 0.00 | 0.00 | 0.00 | 28 | 1007.4 |
| 20260504201609 | 74 | 300 | 1.7 | 8.7 | 0.00 | 0.00 | 0.00 | 30 | 1007.4 |
| 20260504200107 | 74 | 290 | 2.6 | 7.8 | 0.00 | 0.00 | 0.00 | 30 | 1007.5 |
| 20260504194552 | 73 | 253 | 1.7 | 9.6 | 0.00 | 0.00 | 0.00 | 30 | 1007.6 |
| 20260504193051 | 73 | 317 | 1.7 | 7.8 | 0.00 | 0.00 | 0.00 | 30 | 1007.9 |
| 20260504191548 | 72 | 204 | 1.7 | 5.2 | 0.00 | 0.00 | 0.00 | 31 | 1008.0 |
| 20260504190048 | 72 | 170 | 1.7 | 7.0 | 0.00 | 0.00 | 0.00 | 29 | 1008.1 |
| 20260504184555 | 72 | 205 | 2.6 | 6.1 | 0.00 | 0.00 | 0.00 | 30 | 1008.2 |
| 20260504183043 | 72 | 171 | 0.9 | 6.1 | 0.00 | 0.00 | 0.00 | 33 | 1008.3 |
| 20260504181544 | 71 | 186 | 1.7 | 4.3 | 0.00 | 0.00 | 0.00 | 33 | 1008.6 |
| 20260504180041 | 71 | 139 | 3.5 | 7.8 | 0.00 | 0.00 | 0.00 | 32 | 1008.8 |
| 20260504174537 | 70 | 155 | 2.6 | 6.1 | 0.00 | 0.00 | 0.00 | 32 | 1008.9 |
| 20260504173035 | 69 | 219 | 3.5 | 6.1 | 0.00 | 0.00 | 0.00 | 34 | 1009.0 |
| 20260504171535 | 69 | 146 | 2.6 | 7.8 | 0.00 | 0.00 | 0.00 | 36 | 1009.1 |
| 20260504081548 | 56 | 19 | 0.0 | 3.5 | 0.00 | 0.00 | 0.00 | 42 | 1008.6 |